FW4302 Weather Reports


Display with metric or nautical units.
time (UTC)temp
F
wind
direction
speed
MPH
gust
MPH
rain 1hr
in
rain 24hr
in
rain mn
in
humidity
%
barometer
mb
20260504220012 73 20 2.0 13.0 0.00 0.00 0.00 34 1008.4
20260504214503 73 146 3.0 9.0 0.00 0.00 0.00 34 1008.7
20260504213007 73 137 6.0 11.0 0.00 0.00 0.00 34 1008.8
20260504211600 72 82 3.0 10.0 0.00 0.00 0.00 35 1008.9
20260504210109 71 144 3.0 9.0 0.00 0.00 0.00 36 1009.1
20260504204603 71 331 4.0 10.0 0.00 0.00 0.00 36 1009.1
20260504203056 71 116 5.0 11.0 0.00 0.00 0.00 36 1009.2
20260504201554 70 344 3.0 10.0 0.00 0.00 0.00 38 1009.2
20260504200051 70 42 2.0 9.0 0.00 0.00 0.00 42 1009.2
20260504194605 69 210 4.0 11.0 0.00 0.00 0.00 37 1009.3
20260504193051 69 83 2.0 10.0 0.00 0.00 0.00 40 1009.3
20260504191550 69 146 3.0 9.0 0.00 0.00 0.00 40 1009.4
20260504190108 68 12 4.0 12.0 0.00 0.00 0.00 38 1009.5
20260504184555 68 40 3.0 10.0 0.00 0.00 0.00 40 1009.4
20260504183044 68 111 2.0 11.0 0.00 0.00 0.00 44 1009.4
20260504181546 68 50 2.0 12.0 0.00 0.00 0.00 41 1009.5
20260504180110 67 34 3.0 14.0 0.00 0.00 0.00 41 1009.6
20260504174539 66 360 3.0 10.0 0.00 0.00 0.00 40 1009.7
20260504173138 66 116 2.0 13.0 0.00 0.00 0.00 42 1009.7
20260504171536 65 355 2.0 13.0 0.00 0.00 0.00 41 1009.7
20260504120112 43 246 0.0 3.0 0.00 0.00 0.00 87 1008.4
20260504081525 48 282 1.0 3.0 0.00 0.00 0.00 79 1008.3
20260504050009 57 293 0.0 3.0 0.00 0.00 0.00 63 1008.0
20260504044508 60 244 2.0 3.0 0.00 0.00 0.00 50 1008.0
20260504043008 60 243 1.0 4.0 0.00 0.00 0.00 50 1008.1
20260504041507 61 227 2.0 4.0 0.00 0.00 0.00 50 1008.1
20260504040009 61 246 0.0 2.0 0.00 0.00 0.00 51 1008.0
20260504034506 62 233 0.0 3.0 0.00 0.00 0.00 49 1007.8
20260504033005 62 244 0.0 2.0 0.00 0.00 0.00 51 1007.7
20260504031504 63 256 1.0 3.0 0.00 0.00 0.00 49 1007.6
20260504030104 63 41 1.0 4.0 0.00 0.00 0.00 50 1007.8
20260504024604 63 315 0.0 2.0 0.00 0.00 0.00 51 1007.7
20260504023059 64 315 1.0 3.0 0.00 0.00 0.00 56 1007.6
20260504021610 66 315 1.0 2.0 0.00 0.00 0.00 49 1007.7
20260504014554 71 228 0.0 2.0 0.00 0.00 0.00 38 1007.9
20260504013057 74 248 1.0 4.0 0.00 0.00 0.00 35 1008.1
20260504011555 74 221 0.0 3.0 0.00 0.00 0.00 34 1008.2
20260504010057 75 355 1.0 4.0 0.00 0.00 0.00 32 1008.3
20260504004552 76 155 1.0 4.0 0.00 0.00 0.00 33 1008.4
20260504003049 76 251 0.0 6.0 0.00 0.00 0.00 32 1008.7
20260504001604 76 301 1.0 5.0 0.00 0.00 0.00 29 1008.8
20260504000046 77 281 3.0 5.0 0.00 0.00 0.00 30 1008.8
20260503234545 77 277 1.0 7.0 0.00 0.00 0.00 30 1008.9
20260503233044 77 175 2.0 9.0 0.00 0.00 0.00 27 1009.0
20260503231549 77 300 2.0 5.0 0.00 0.00 0.00 27 1009.2
20260503230039 76 134 4.0 7.0 0.00 0.00 0.00 27 1009.5
20260503224538 77 142 3.0 10.0 0.00 0.00 0.00 27 1009.8
20260503223039 76 171 1.0 7.0 0.00 0.00 0.00 28 1010.1
20260503221535 76 334 2.0 11.0 0.00 0.00 0.00 26 1010.2